Location: Borowce
(50.8255°N, 19.6209°E)
Time: 07:51:45
(UTC+00:00)

Cosmos 1766 Rocket - Pass Details

Date: 19 May 2025
Orbit: 598 x 627 km, 82.5° (Epoch: 16 June)

Event Time Altitude Azimuth Distance (km) Brightness Sun altitude
Rises 20:16:11 0° 355° (N) 2,910 8.2 -12.6°
Reaches altitude 10° 20:18:35 10° 4° (N) 1,995 7.0 -12.9°
Maximum altitude 20:22:41 37° 72° (ENE) 970 4.4 -13.2°
Enters shadow 20:25:13 20° 128° (SE) 1,441 4.9 -13.4°
